This is the latest recevied weather packets stored in our database for station/object N0NPO. If no packets are shown the sender has not sent any weather packets the latest 10 day(s).
| Time | Temp. | Humidity | Pressure | Rain* | Wind** | Luminosity | Snow |
|---|---|---|---|---|---|---|---|
| 1778283552 | 21.11° C | 1% | 1011.5 hPa | 0 mm | - | 229 W/m² | - |
| 1778283251 | 20.56° C | 1% | 1011.7 hPa | 0 mm | - | 235 W/m² | - |
| 1778282948 | 21.11° C | 1% | 1011.8 hPa | 0 mm | - | 264 W/m² | - |
| 1778282645 | 21.11° C | 1% | 1011.6 hPa | 0 mm | - | 239 W/m² | - |
| 1778282342 | 21.67° C | 1% | 1011.6 hPa | 0 mm | - | 265 W/m² | - |
| 1778282039 | 21.11° C | 1% | 1011.7 hPa | 0 mm | - | 303 W/m² | - |
| 1778281736 | 21.11° C | 1% | 1011.9 hPa | 0 mm | - | 340 W/m² | - |
| 1778281432 | 20.56° C | 1% | 1011.6 hPa | 0 mm | - | 340 W/m² | - |
| 1778281130 | 21.67° C | 1% | 1011.9 hPa | 0 mm | - | 352 W/m² | - |
| 1778280826 | 21.11° C | 1% | 1011.7 hPa | 0 mm | - | 395 W/m² | - |
| 1778280524 | 21.11° C | 1% | 1011.9 hPa | 0 mm | - | 409 W/m² | - |
| 1778280221 | 21.11° C | 1% | 1011.8 hPa | 0 mm | - | 433 W/m² | - |
| 1778279919 | 21.67° C | 1% | 1011.9 hPa | 0 mm | - | 423 W/m² | - |
| 1778279616 | 21.67° C | 1% | 1011.7 hPa | 0 mm | - | 417 W/m² | - |
| 1778279313 | 21.67° C | 1% | 1011.7 hPa | 0 mm | - | 448 W/m² | - |
| 1778279010 | 21.11° C | 1% | 1011.7 hPa | 0 mm | - | 273 W/m² | - |
| 1778278707 | 21.11° C | 1% | 1011.6 hPa | 0 mm | - | 486 W/m² | - |
| 1778278402 | 21.67° C | 1% | 1011.9 hPa | 0 mm | - | 487 W/m² | - |
| 1778278099 | 21.67° C | 1% | 1011.9 hPa | 0 mm | - | 516 W/m² | - |
| 1778277796 | 21.67° C | 1% | 1012 hPa | 0 mm | - | 503 W/m² | - |
| 1778277493 | 21.11° C | 1% | 1012 hPa | 0 mm | - | 492 W/m² | - |
| 1778277189 | 21.11° C | 1% | 1012 hPa | 0 mm | - | 528 W/m² | - |
| 1778276886 | 20.56° C | 1% | 1012.1 hPa | 0 mm | - | 538 W/m² | - |
| 1778276583 | 21.11° C | 1% | 1012 hPa | 0 mm | - | 577 W/m² | - |
| 1778276279 | 21.67° C | 1% | 1012.1 hPa | 0 mm | - | 527 W/m² | - |
* Rain latest hour (hover to see other rain measurements)
** Current wind speed in m/s (hover to see current wind gust speed)